| time (UTC) | temp C | wind direction | speed KPH | gust KPH | rain 1hr cm | rain 24hr cm | rain mn cm | humidity % | barometer mb |
| 20260507005551 | 11 | 302 | 0.0 | 3.2 | 0.00 | 1.09 | 0.99 | 67 | 1011.4 |
| 20260507005012 | 12 | 285 | 0.0 | 3.2 | 0.00 | 1.09 | 0.99 | 67 | 1011.2 |
| 20260507004522 | 12 | 285 | 0.0 | 6.4 | 0.00 | 1.09 | 0.99 | 66 | 1011.2 |
| 20260507004012 | 12 | 285 | 1.6 | 8.0 | 0.00 | 1.09 | 0.99 | 67 | 1011.1 |
| 20260507003526 | 12 | 290 | 1.6 | 8.0 | 0.00 | 1.09 | 0.99 | 66 | 1011.0 |
| 20260507003038 | 12 | 339 | 1.6 | 6.4 | 0.00 | 1.09 | 0.99 | 64 | 1010.9 |
| 20260507002529 | 12 | 338 | 1.6 | 4.8 | 0.00 | 1.09 | 0.99 | 67 | 1010.8 |
| 20260507002039 | 12 | 329 | 1.6 | 8.0 | 0.00 | 1.09 | 0.99 | 65 | 1010.6 |
| 20260507001600 | 12 | 285 | 3.2 | 8.0 | 0.00 | 1.09 | 0.99 | 64 | 1010.6 |
| 20260507001105 | 12 | 296 | 1.6 | 9.7 | 0.00 | 1.09 | 0.99 | 65 | 1010.5 |
| 20260507000508 | 12 | 334 | 3.2 | 11.3 | 0.00 | 1.09 | 0.99 | 62 | 1010.5 |
| 20260507000016 | 12 | 316 | 4.8 | 11.3 | 0.00 | 1.09 | 0.99 | 64 | 1010.6 |
| 20260506235529 | 12 | 326 | 3.2 | 11.3 | 0.00 | 1.09 | 0.99 | 65 | 1010.6 |
| 20260506235025 | 12 | 310 | 3.2 | 8.0 | 0.00 | 1.09 | 0.99 | 64 | 1010.6 |
| 20260506234534 | 12 | 317 | 1.6 | 8.0 | 0.00 | 1.09 | 0.99 | 67 | 1010.6 |
| 20260506234042 | 12 | 346 | 1.6 | 8.0 | 0.00 | 1.09 | 0.99 | 63 | 1010.6 |
| 20260506233537 | 13 | 297 | 3.2 | 11.3 | 0.00 | 1.09 | 0.99 | 65 | 1010.6 |
| 20260506233042 | 13 | 310 | 3.2 | 11.3 | 0.00 | 1.09 | 0.99 | 64 | 1010.8 |
| 20260506232558 | 13 | 323 | 1.6 | 8.0 | 0.00 | 1.09 | 0.99 | 63 | 1010.7 |
| 20260506232007 | 13 | 319 | 3.2 | 12.9 | 0.00 | 1.09 | 0.99 | 63 | 1010.7 |
| 20260506231558 | 13 | 296 | 1.6 | 12.9 | 0.00 | 1.09 | 0.99 | 65 | 1010.9 |
| 20260506231012 | 13 | 290 | 3.2 | 11.3 | 0.00 | 1.09 | 0.99 | 65 | 1010.9 |
| 20260506230527 | 13 | 314 | 3.2 | 11.3 | 0.00 | 1.09 | 0.99 | 64 | 1010.9 |
| 20260506230108 | 13 | 313 | 4.8 | 11.3 | 0.00 | 1.09 | 0.99 | 62 | 1010.6 |
| 20260506225511 | 13 | 279 | 4.8 | 11.3 | 0.00 | 1.09 | 0.99 | 61 | 1011.0 |
| 20260506225059 | 13 | 297 | 4.8 | 9.7 | 0.00 | 1.09 | 0.99 | 61 | 1011.0 |
| 20260506224514 | 14 | 315 | 1.6 | 8.0 | 0.00 | 1.09 | 0.99 | 61 | 1010.9 |
| 20260506224023 | 14 | 315 | 4.8 | 11.3 | 0.00 | 1.09 | 0.99 | 58 | 1010.7 |
| 20260506223537 | 14 | 336 | 3.2 | 11.3 | 0.00 | 1.09 | 0.99 | 63 | 1010.5 |
| 20260506223055 | 14 | 313 | 3.2 | 9.7 | 0.00 | 1.09 | 0.99 | 59 | 1010.5 |
| 20260506222504 | 14 | 290 | 3.2 | 8.0 | 0.00 | 1.09 | 0.99 | 62 | 1010.4 |
| 20260506222016 | 14 | 299 | 1.6 | 8.0 | 0.00 | 1.09 | 0.99 | 61 | 1010.0 |
| 20260506221530 | 15 | 282 | 1.6 | 4.8 | 0.00 | 1.09 | 0.99 | 61 | 1010.0 |
| 20260506221044 | 15 | 304 | 1.6 | 8.0 | 0.00 | 1.09 | 0.99 | 58 | 1010.0 |
| 20260506220554 | 15 | 268 | 4.8 | 8.0 | 0.00 | 1.09 | 0.99 | 58 | 1010.1 |
| 20260506220014 | 15 | 309 | 1.6 | 8.0 | 0.00 | 1.09 | 0.99 | 60 | 1010.0 |
| 20260506215521 | 15 | 291 | 1.6 | 8.0 | 0.00 | 1.09 | 0.99 | 59 | 1010.0 |
| 20260506215031 | 15 | 285 | 1.6 | 8.0 | 0.00 | 1.09 | 0.99 | 61 | 1009.9 |
| 20260506214546 | 15 | 323 | 1.6 | 8.0 | 0.00 | 1.09 | 0.99 | 64 | 1009.8 |
| 20260506214056 | 15 | 276 | 0.0 | 9.7 | 0.00 | 1.09 | 0.99 | 60 | 1009.8 |
| 20260506213514 | 15 | 314 | 3.2 | 9.7 | 0.00 | 1.09 | 0.99 | 57 | 1009.8 |
| 20260506213028 | 15 | 270 | 1.6 | 11.3 | 0.00 | 1.09 | 0.99 | 61 | 1009.8 |
| 20260506212536 | 15 | 275 | 4.8 | 14.5 | 0.00 | 1.09 | 0.99 | 56 | 1009.7 |
| 20260506212048 | 15 | 277 | 8.0 | 14.5 | 0.00 | 1.09 | 0.99 | 54 | 1009.7 |
| 20260506211503 | 15 | 258 | 3.2 | 12.9 | 0.00 | 1.09 | 0.99 | 57 | 1009.7 |
| 20260506211018 | 15 | 355 | 3.2 | 12.9 | 0.00 | 1.09 | 0.99 | 56 | 1009.7 |
| 20260506210530 | 15 | 304 | 6.4 | 11.3 | 0.00 | 1.09 | 0.99 | 58 | 1009.6 |
| 20260506210044 | 15 | 282 | 1.6 | 12.9 | 0.00 | 1.09 | 0.99 | 59 | 1009.4 |
| 20260506205556 | 16 | 309 | 1.6 | 12.9 | 0.00 | 1.09 | 0.99 | 59 | 1009.5 |
| 20260506205012 | 16 | 330 | 3.2 | 16.1 | 0.00 | 1.09 | 0.99 | 56 | 1009.5 |
| 20260506204528 | 16 | 292 | 8.0 | 16.1 | 0.00 | 1.09 | 0.99 | 54 | 1009.4 |
| 20260506204038 | 16 | 319 | 6.4 | 9.7 | 0.00 | 1.09 | 0.99 | 56 | 1009.3 |
| 20260506203545 | 16 | 308 | 1.6 | 17.7 | 0.00 | 1.09 | 0.99 | 63 | 1009.3 |
| 20260506203011 | 16 | 261 | 4.8 | 17.7 | 0.00 | 1.09 | 0.99 | 58 | 1009.3 |
| 20260506202513 | 16 | 258 | 1.6 | 9.7 | 0.00 | 1.09 | 0.99 | 57 | 1009.3 |
| 20260506202029 | 16 | 280 | 3.2 | 11.3 | 0.00 | 1.09 | 0.99 | 58 | 1009.3 |
| 20260506201540 | 16 | 274 | 4.8 | 14.5 | 0.00 | 1.09 | 0.99 | 56 | 1009.3 |
| 20260506201051 | 16 | 280 | 6.4 | 14.5 | 0.00 | 1.09 | 0.99 | 60 | 1009.3 |
| 20260506200603 | 16 | 333 | 3.2 | 11.3 | 0.00 | 1.09 | 0.99 | 62 | 1009.2 |
| 20260506200501 | 16 | 300 | 3.2 | 11.3 | 0.00 | 1.09 | 0.99 | 63 | 1009.3 |
| 20260506200015 | 16 | 295 | 3.2 | 12.9 | 0.00 | 1.09 | 0.99 | 59 | 1009.3 |
| 20260506195525 | 16 | 321 | 4.8 | 12.9 | 0.00 | 1.09 | 0.99 | 61 | 1009.4 |
| 20260506195041 | 16 | 288 | 8.0 | 11.3 | 0.00 | 1.09 | 0.99 | 59 | 1009.3 |
| 20260506194601 | 16 | 322 | 4.8 | 11.3 | 0.00 | 1.09 | 0.99 | 60 | 1009.2 |
| 20260506194005 | 16 | 277 | 3.2 | 11.3 | 0.00 | 1.09 | 0.99 | 59 | 1009.2 |
| 20260506193515 | 16 | 270 | 1.6 | 9.7 | 0.00 | 1.09 | 0.99 | 64 | 1009.2 |
| 20260506193031 | 16 | 307 | 1.6 | 12.9 | 0.00 | 1.09 | 0.99 | 65 | 1009.2 |
| 20260506192542 | 16 | 284 | 6.4 | 12.9 | 0.00 | 1.09 | 0.99 | 65 | 1009.2 |
| 20260506192056 | 16 | 279 | 3.2 | 17.7 | 0.00 | 1.09 | 0.99 | 64 | 1009.3 |
| 20260506191514 | 16 | 285 | 6.4 | 17.7 | 0.00 | 1.09 | 0.99 | 67 | 1009.3 |
| 20260506191026 | 15 | 306 | 1.6 | 12.9 | 0.00 | 1.09 | 0.99 | 67 | 1009.5 |
| 20260506190541 | 15 | 291 | 4.8 | 12.9 | 0.00 | 1.09 | 0.99 | 66 | 1009.4 |
| 20260506190050 | 15 | 302 | 3.2 | 8.0 | 0.00 | 1.09 | 0.99 | 68 | 1009.5 |
| 20260506185505 | 15 | 313 | 3.2 | 9.7 | 0.00 | 1.09 | 0.99 | 68 | 1009.5 |
| 20260506185015 | 15 | 350 | 1.6 | 9.7 | 0.00 | 1.09 | 0.99 | 67 | 1009.5 |
| 20260506184530 | 15 | 288 | 3.2 | 9.7 | 0.00 | 1.09 | 0.99 | 66 | 1009.6 |
| 20260506184040 | 15 | 311 | 3.2 | 14.5 | 0.00 | 1.09 | 0.99 | 68 | 1009.6 |
| 20260506183556 | 15 | 349 | 4.8 | 16.1 | 0.00 | 1.09 | 0.99 | 64 | 1009.6 |
| 20260506183006 | 15 | 271 | 3.2 | 14.5 | 0.00 | 1.09 | 0.99 | 64 | 1009.6 |
| 20260506182519 | 15 | 278 | 1.6 | 14.5 | 0.00 | 1.09 | 0.99 | 69 | 1009.5 |
| 20260506182031 | 15 | 269 | 3.2 | 14.5 | 0.00 | 1.09 | 0.99 | 71 | 1009.6 |
| 20260506181553 | 15 | 322 | 6.4 | 14.5 | 0.00 | 1.09 | 0.99 | 67 | 1009.6 |
| 20260506181056 | 15 | 310 | 4.8 | 12.9 | 0.00 | 1.09 | 0.99 | 70 | 1009.7 |
| 20260506180517 | 15 | 279 | 1.6 | 9.7 | 0.00 | 1.09 | 0.99 | 70 | 1009.6 |
| 20260506180024 | 15 | 313 | 3.2 | 11.3 | 0.00 | 1.09 | 0.99 | 70 | 1009.4 |
| 20260506175542 | 15 | 313 | 4.8 | 11.3 | 0.00 | 1.09 | 0.99 | 71 | 1009.4 |
| 20260506175047 | 14 | 314 | 3.2 | 14.5 | 0.00 | 1.09 | 0.99 | 71 | 1009.3 |
| 20260506174504 | 14 | 273 | 1.6 | 8.0 | 0.00 | 1.09 | 0.99 | 73 | 1009.2 |
| 20260506174020 | 14 | 306 | 1.6 | 12.9 | 0.00 | 1.09 | 0.99 | 74 | 1009.3 |
| 20260506173532 | 14 | 323 | 4.8 | 12.9 | 0.00 | 1.09 | 0.99 | 76 | 1009.4 |
| 20260506173052 | 14 | 279 | 3.2 | 8.0 | 0.00 | 1.09 | 0.99 | 73 | 1009.6 |
| 20260506172555 | 14 | 342 | 1.6 | 8.0 | 0.00 | 1.09 | 0.99 | 75 | 1009.8 |
| 20260506172011 | 13 | 333 | 1.6 | 12.9 | 0.00 | 1.09 | 0.99 | 76 | 1009.8 |
| 20260506171535 | 13 | 300 | 6.4 | 16.1 | 0.00 | 1.09 | 0.99 | 75 | 1009.8 |
| 20260506171036 | 13 | 298 | 8.0 | 17.7 | 0.00 | 1.09 | 0.99 | 77 | 1009.8 |
| 20260506170545 | 13 | 355 | 4.8 | 17.7 | 0.00 | 1.09 | 0.99 | 78 | 1009.7 |
| 20260506170100 | 13 | 320 | 1.6 | 8.0 | 0.00 | 1.09 | 0.99 | 82 | 1009.5 |
| 20260506170002 | 13 | 331 | 1.6 | 8.0 | 0.00 | 1.09 | 0.99 | 81 | 1009.4 |
| 20260506165514 | 13 | 302 | 0.0 | 8.0 | 0.00 | 1.09 | 0.99 | 82 | 1009.3 |
| 20260506165027 | 13 | 281 | 1.6 | 9.7 | 0.00 | 1.09 | 0.99 | 82 | 1009.1 |
| 20260506164546 | 13 | 15 | 3.2 | 9.7 | 0.00 | 1.09 | 0.99 | 80 | 1009.3 |
| 20260506164051 | 13 | 315 | 0.0 | 8.0 | 0.00 | 1.09 | 0.99 | 80 | 1009.1 |
| 20260506163505 | 12 | 292 | 1.6 | 11.3 | 0.00 | 1.09 | 0.99 | 82 | 1009.4 |
| 20260506163019 | 12 | 310 | 0.0 | 11.3 | 0.00 | 1.09 | 0.99 | 84 | 1009.4 |
| 20260506162532 | 12 | 324 | 1.6 | 16.1 | 0.00 | 1.09 | 0.99 | 83 | 1009.5 |
| 20260506162044 | 12 | 262 | 3.2 | 16.1 | 0.00 | 1.09 | 0.99 | 85 | 1009.6 |
| 20260506161603 | 12 | 264 | 3.2 | 12.9 | 0.00 | 1.09 | 0.99 | 85 | 1009.7 |
| 20260506161010 | 12 | 319 | 3.2 | 12.9 | 0.00 | 1.09 | 0.99 | 84 | 1009.5 |
| 20260506160521 | 12 | 322 | 1.6 | 11.3 | 0.00 | 1.09 | 0.99 | 85 | 1009.4 |
| 20260506160043 | 12 | 309 | 1.6 | 11.3 | 0.00 | 1.09 | 0.99 | 85 | 1009.1 |
| 20260506155543 | 12 | 285 | 0.0 | 11.3 | 0.00 | 1.09 | 0.99 | 87 | 1009.2 |
| 20260506155057 | 12 | 283 | 3.2 | 11.3 | 0.00 | 1.09 | 0.99 | 87 | 1009.2 |
| 20260506154510 | 11 | 344 | 1.6 | 12.9 | 0.00 | 1.09 | 0.99 | 90 | 1009.1 |
| 20260506154026 | 11 | 344 | 6.4 | 12.9 | 0.00 | 1.09 | 0.99 | 87 | 1009.0 |
| 20260506153536 | 11 | 312 | 4.8 | 12.9 | 0.00 | 1.09 | 0.99 | 89 | 1009.0 |
| 20260506153049 | 11 | 301 | 3.2 | 11.3 | 0.00 | 1.09 | 0.99 | 89 | 1009.1 |
| 20260506152508 | 11 | 270 | 3.2 | 12.9 | 0.00 | 1.09 | 0.99 | 91 | 1009.0 |
| 20260506152017 | 11 | 329 | 4.8 | 12.9 | 0.00 | 1.09 | 0.99 | 92 | 1009.0 |
| 20260506151536 | 11 | 279 | 1.6 | 6.4 | 0.00 | 1.09 | 0.99 | 92 | 1008.9 |
| 20260506151043 | 11 | 318 | 1.6 | 6.4 | 0.00 | 1.09 | 0.99 | 92 | 1008.8 |
| 20260506150557 | 11 | 338 | 1.6 | 8.0 | 0.00 | 1.09 | 0.99 | 93 | 1008.7 |
| 20260506150022 | 10 | 284 | 3.2 | 8.0 | 0.00 | 1.09 | 0.99 | 93 | 1008.4 |
| 20260506145526 | 10 | 310 | 1.6 | 4.8 | 0.00 | 1.09 | 0.99 | 94 | 1008.4 |
| 20260506145035 | 10 | 306 | 1.6 | 6.4 | 0.00 | 1.09 | 0.99 | 95 | 1008.4 |
| 20260506144550 | 10 | 24 | 0.0 | 6.4 | 0.00 | 1.09 | 0.99 | 94 | 1008.1 |
| 20260506144005 | 10 | 286 | 0.0 | 6.4 | 0.00 | 1.09 | 0.99 | 95 | 1008.2 |
| 20260506143520 | 10 | 309 | 1.6 | 6.4 | 0.00 | 1.09 | 0.99 | 96 | 1008.1 |
| 20260506143038 | 9 | 348 | 1.6 | 6.4 | 0.00 | 1.09 | 0.99 | 95 | 1008.2 |
| 20260506142537 | 9 | 346 | 0.0 | 3.2 | 0.00 | 1.09 | 0.99 | 95 | 1008.1 |
| 20260506142049 | 9 | 346 | 0.0 | 6.4 | 0.00 | 1.09 | 0.99 | 95 | 1008.1 |
| 20260506141539 | 9 | 292 | 0.0 | 3.2 | 0.00 | 1.09 | 0.99 | 95 | 1008.1 |
| 20260506141050 | 9 | 292 | 0.0 | 8.0 | 0.00 | 1.09 | 0.99 | 94 | 1008.1 |
| 20260506140505 | 9 | 318 | 3.2 | 8.0 | 0.00 | 1.09 | 0.99 | 95 | 1007.5 |
| 20260506140106 | 9 | 317 | 1.6 | 6.4 | 0.00 | 1.09 | 0.99 | 95 | 1007.6 |
| 20260506135507 | 9 | 321 | 1.6 | 6.4 | 0.00 | 1.09 | 0.99 | 95 | 1007.5 |
| 20260506135018 | 8 | 317 | 3.2 | 6.4 | 0.03 | 1.09 | 0.99 | 95 | 1007.6 |
| 20260506134529 | 9 | 336 | 1.6 | 4.8 | 0.03 | 1.09 | 0.99 | 95 | 1007.7 |
| 20260506134011 | 8 | 348 | 0.0 | 6.4 | 0.03 | 1.09 | 0.99 | 95 | 1007.3 |
| 20260506133526 | 8 | 348 | 0.0 | 6.4 | 0.03 | 1.09 | 0.99 | 95 | 1007.2 |
| 20260506133040 | 8 | 350 | 0.0 | 9.7 | 0.03 | 1.09 | 0.99 | 95 | 1007.2 |
| 20260506132516 | 8 | 325 | 3.2 | 9.7 | 0.03 | 1.09 | 0.99 | 95 | 1007.3 |
| 20260506132016 | 8 | 335 | 1.6 | 3.2 | 0.03 | 1.09 | 0.99 | 95 | 1007.3 |
| 20260506131522 | 8 | 315 | 1.6 | 3.2 | 0.03 | 1.09 | 0.99 | 95 | 1007.3 |
| 20260506131028 | 8 | 326 | 1.6 | 9.7 | 0.03 | 1.09 | 0.99 | 95 | 1007.2 |
| 20260506130523 | 8 | 282 | 0.0 | 6.4 | 0.05 | 1.09 | 0.99 | 95 | 1007.4 |
| 20260506130030 | 8 | 350 | 3.2 | 6.4 | 0.05 | 1.09 | 0.99 | 95 | 1007.3 |
| 20260506125543 | 8 | 316 | 1.6 | 3.2 | 0.05 | 1.09 | 0.99 | 95 | 1007.1 |
| 20260506125052 | 8 | 342 | 0.0 | 6.4 | 0.03 | 1.07 | 0.97 | 95 | 1007.0 |
| 20260506124547 | 8 | 300 | 1.6 | 8.0 | 0.03 | 1.07 | 0.97 | 94 | 1006.9 |
| 20260506124057 | 8 | 287 | 1.6 | 4.8 | 0.03 | 1.07 | 0.97 | 94 | 1006.8 |
| 20260506123513 | 8 | 360 | 1.6 | 6.4 | 0.03 | 1.07 | 0.97 | 94 | 1006.6 |
| 20260506123004 | 8 | 338 | 1.6 | 12.9 | 0.03 | 1.07 | 0.97 | 94 | 1006.5 |
| 20260506122518 | 8 | 318 | 1.6 | 12.9 | 0.03 | 1.07 | 0.97 | 94 | 1006.7 |
| 20260506122027 | 8 | 317 | 3.2 | 9.7 | 0.03 | 1.07 | 0.97 | 94 | 1006.6 |
| 20260506121527 | 8 | 333 | 1.6 | 4.8 | 0.03 | 1.07 | 0.97 | 94 | 1006.5 |
| 20260506121033 | 8 | 321 | 3.2 | 6.4 | 0.05 | 1.07 | 0.97 | 94 | 1006.5 |
| 20260506120547 | 8 | 316 | 3.2 | 4.8 | 0.03 | 1.04 | 0.97 | 94 | 1006.1 |
| 20260506120101 | 8 | 322 | 1.6 | 3.2 | 0.03 | 1.04 | 0.94 | 94 | 1005.8 |
| 20260506115549 | 8 | 323 | 1.6 | 3.2 | 0.03 | 1.04 | 0.94 | 94 | 1005.8 |
| 20260506115057 | 8 | 313 | 0.0 | 3.2 | 0.03 | 1.04 | 0.94 | 94 | 1005.8 |
| 20260506114519 | 8 | 292 | 0.0 | 3.2 | 0.03 | 1.04 | 0.94 | 94 | 1005.6 |
| 20260506114003 | 8 | 326 | 0.0 | 3.2 | 0.03 | 1.04 | 0.94 | 94 | 1005.7 |
| 20260506113517 | 8 | 326 | 0.0 | 6.4 | 0.03 | 1.04 | 0.94 | 94 | 1005.5 |
| 20260506113029 | 8 | 5 | 1.6 | 8.0 | 0.05 | 1.04 | 0.94 | 94 | 1005.4 |
| 20260506112533 | 9 | 322 | 3.2 | 8.0 | 0.05 | 1.04 | 0.94 | 94 | 1005.2 |
| 20260506112025 | 9 | 350 | 0.0 | 4.8 | 0.05 | 1.04 | 0.94 | 94 | 1005.3 |
| 20260506111541 | 9 | 350 | 1.6 | 6.4 | 0.05 | 1.04 | 0.94 | 94 | 1005.4 |
| 20260506111051 | 9 | 350 | 1.6 | 3.2 | 0.03 | 1.02 | 0.91 | 94 | 1005.4 |
| 20260506110543 | 9 | 350 | 1.6 | 3.2 | 0.03 | 1.02 | 0.91 | 93 | 1005.2 |
| 20260506110002 | 9 | 350 | 1.6 | 8.0 | 0.03 | 1.02 | 0.91 | 93 | 1005.2 |
| 20260506105515 | 9 | 350 | 1.6 | 8.0 | 0.03 | 1.02 | 0.91 | 93 | 1005.0 |
| 20260506105005 | 9 | 340 | 1.6 | 6.4 | 0.03 | 1.02 | 0.91 | 93 | 1004.8 |
| 20260506104516 | 9 | 15 | 1.6 | 8.0 | 0.03 | 1.02 | 0.91 | 93 | 1004.8 |
| 20260506104030 | 10 | 346 | 1.6 | 8.0 | 0.05 | 1.02 | 0.91 | 93 | 1004.7 |
| 20260506103541 | 10 | 330 | 3.2 | 6.4 | 0.05 | 1.02 | 0.91 | 93 | 1004.6 |
| 20260506103029 | 10 | 331 | 1.6 | 6.4 | 0.05 | 0.99 | 0.89 | 93 | 1004.7 |
| 20260506102540 | 10 | 342 | 0.0 | 11.3 | 0.10 | 0.99 | 0.89 | 93 | 1004.2 |
| 20260506102054 | 10 | 317 | 1.6 | 11.3 | 0.13 | 0.99 | 0.89 | 93 | 1004.4 |
| 20260506101552 | 10 | 315 | 3.2 | 8.0 | 0.18 | 0.99 | 0.89 | 93 | 1004.4 |
| 20260506101055 | 10 | 335 | 3.2 | 8.0 | 0.20 | 0.99 | 0.89 | 92 | 1004.2 |
| 20260506100511 | 10 | 344 | 3.2 | 6.4 | 0.23 | 0.99 | 0.89 | 92 | 1003.8 |
| 20260506100008 | 11 | 335 | 0.0 | 3.2 | 0.23 | 0.99 | 0.89 | 92 | 1003.9 |
| 20260506095507 | 11 | 335 | 1.6 | 3.2 | 0.23 | 0.99 | 0.89 | 92 | 1004.1 |
| 20260506095022 | 11 | 335 | 1.6 | 6.4 | 0.23 | 0.99 | 0.89 | 92 | 1003.9 |
| 20260506094531 | 11 | 341 | 3.2 | 9.7 | 0.23 | 0.99 | 0.89 | 91 | 1003.9 |
| 20260506094023 | 11 | 328 | 1.6 | 9.7 | 0.23 | 0.97 | 0.86 | 90 | 1003.9 |
| 20260506093535 | 12 | 336 | 4.8 | 9.7 | 0.23 | 0.94 | 0.86 | 90 | 1003.9 |
| 20260506093053 | 13 | 320 | 4.8 | 12.9 | 0.25 | 0.94 | 0.84 | 91 | 1003.8 |
| 20260506092540 | 13 | 272 | 6.4 | 14.5 | 0.20 | 0.89 | 0.79 | 91 | 1003.7 |
| 20260506092047 | 14 | 315 | 8.0 | 14.5 | 0.18 | 0.84 | 0.76 | 94 | 1003.9 |
| 20260506091557 | 14 | 240 | 6.4 | 14.5 | 0.18 | 0.81 | 0.71 | 94 | 1003.7 |
| 20260506091014 | 14 | 268 | 3.2 | 12.9 | 0.15 | 0.79 | 0.69 | 94 | 1003.7 |
| 20260506090602 | 14 | 258 | 4.8 | 14.5 | 0.15 | 0.76 | 0.66 | 94 | 1003.6 |
| 20260506090013 | 14 | 155 | 3.2 | 14.5 | 0.15 | 0.76 | 0.66 | 94 | 1003.6 |
| 20260506085525 | 14 | 233 | 3.2 | 12.9 | 0.18 | 0.76 | 0.66 | 94 | 1003.6 |
| 20260506085016 | 14 | 267 | 4.8 | 9.7 | 0.20 | 0.76 | 0.66 | 94 | 1003.4 |
| 20260506084529 | 13 | 191 | 1.6 | 12.9 | 0.23 | 0.76 | 0.66 | 94 | 1003.4 |
| 20260506084039 | 14 | 184 | 1.6 | 12.9 | 0.23 | 0.71 | 0.64 | 94 | 1003.4 |
| 20260506083542 | 14 | 150 | 3.2 | 11.3 | 0.20 | 0.71 | 0.61 | 94 | 1003.5 |
| 20260506083042 | 14 | 213 | 1.6 | 11.3 | 0.20 | 0.69 | 0.58 | 94 | 1003.4 |
| 20260506082554 | 13 | 161 | 3.2 | 11.3 | 0.18 | 0.66 | 0.58 | 94 | 1003.4 |
| 20260506082012 | 13 | 98 | 3.2 | 12.9 | 0.18 | 0.64 | 0.53 | 94 | 1003.3 |
| 20260506081555 | 13 | 109 | 1.6 | 12.9 | 0.23 | 0.64 | 0.53 | 94 | 1003.4 |
| 20260506081016 | 14 | 157 | 1.6 | 12.9 | 0.25 | 0.64 | 0.53 | 94 | 1003.3 |
| 20260506080521 | 13 | 211 | 1.6 | 9.7 | 0.23 | 0.61 | 0.51 | 94 | 1003.3 |
| 20260506073013 | 14 | 165 | 0.0 | 8.0 | 0.15 | 0.48 | 0.38 | 94 | 1003.6 |
| 20260506072557 | 14 | 99 | 1.6 | 8.0 | 0.18 | 0.48 | 0.38 | 94 | 1003.6 |
| 20260506072012 | 14 | 145 | 0.0 | 8.0 | 0.15 | 0.46 | 0.36 | 94 | 1003.6 |
| 20260506071524 | 14 | 198 | 3.2 | 9.7 | 0.10 | 0.41 | 0.30 | 93 | 1003.5 |
| 20260506071031 | 14 | 136 | 0.0 | 9.7 | 0.08 | 0.38 | 0.28 | 93 | 1003.6 |
| 20260506070525 | 14 | 167 | 1.6 | 8.0 | 0.08 | 0.38 | 0.28 | 93 | 1003.7 |
| 20260506062033 | 14 | 154 | 0.0 | 3.2 | 0.03 | 0.30 | 0.20 | 93 | 1004.1 |
| 20260506061533 | 14 | 112 | 0.0 | 3.2 | 0.03 | 0.30 | 0.20 | 93 | 1004.2 |
| 20260506061041 | 14 | 112 | 0.0 | 3.2 | 0.03 | 0.30 | 0.20 | 93 | 1004.2 |
| 20260506060557 | 14 | 112 | 0.0 | 1.6 | 0.03 | 0.30 | 0.20 | 93 | 1004.0 |
| 20260506051039 | 15 | 113 | 0.0 | 3.2 | 0.15 | 0.28 | 0.18 | 92 | 1004.7 |
| 20260506050550 | 15 | 111 | 0.0 | 3.2 | 0.15 | 0.28 | 0.18 | 92 | 1004.6 |
| 20260506045006 | 15 | 132 | 0.0 | 3.2 | 0.20 | 0.28 | 0.18 | 92 | 1004.9 |
| 20260506044524 | 15 | 132 | 0.0 | 3.2 | 0.20 | 0.25 | 0.15 | 92 | 1005.1 |
| 20260506044029 | 15 | 190 | 0.0 | 8.0 | 0.18 | 0.23 | 0.13 | 92 | 1005.2 |
| 20260506043521 | 15 | 202 | 1.6 | 8.0 | 0.20 | 0.23 | 0.13 | 92 | 1005.4 |
| 20260506043031 | 15 | 254 | 0.0 | 3.2 | 0.18 | 0.20 | 0.10 | 92 | 1005.5 |
| 20260506042545 | 15 | 254 | 0.0 | 1.6 | 0.15 | 0.18 | 0.08 | 91 | 1005.6 |
| 20260506042052 | 15 | 254 | 0.0 | 1.6 | 0.15 | 0.18 | 0.08 | 91 | 1005.7 |
| 20260506041556 | 15 | 254 | 0.0 | 6.4 | 0.13 | 0.15 | 0.05 | 91 | 1005.9 |
| 20260506041053 | 15 | 254 | 0.0 | 6.4 | 0.10 | 0.13 | 0.03 | 91 | 1005.9 |
| 20260506040517 | 15 | 280 | 0.0 | 3.2 | 0.10 | 0.10 | 0.03 | 91 | 1005.8 |
| 20260506040055 | 15 | 280 | 0.0 | 1.6 | 0.10 | 0.10 | 0.00 | 91 | 1005.8 |
| 20260506035511 | 15 | 280 | 0.0 | 1.6 | 0.08 | 0.08 | 0.08 | 91 | 1005.7 |
| 20260506035018 | 15 | 280 | 0.0 | 3.2 | 0.08 | 0.08 | 0.08 | 91 | 1005.6 |
| 20260506034509 | 15 | 280 | 0.0 | 3.2 | 0.05 | 0.05 | 0.05 | 90 | 1005.7 |
| 20260506034019 | 15 | 280 | 0.0 | 0.0 | 0.05 | 0.05 | 0.05 | 90 | 1005.5 |
| 20260506033537 | 15 | 280 | 0.0 | 0.0 | 0.03 | 0.03 | 0.03 | 90 | 1005.5 |
| 20260506033042 | 16 | 280 | 0.0 | 0.0 | 0.03 | 0.03 | 0.03 | 89 | 1005.5 |
| 20260506032532 | 16 | 280 | 0.0 | 0.0 | 0.03 | 0.03 | 0.03 | 89 | 1005.4 |
| 20260506032040 | 16 | 280 | 0.0 | 1.6 | 0.03 | 0.03 | 0.03 | 89 | 1005.4 |
| 20260506031559 | 16 | 280 | 0.0 | 1.6 | 0.03 | 0.03 | 0.03 | 88 | 1005.3 |
| 20260506031040 | 16 | 280 | 0.0 | 0.0 | 0.03 | 0.03 | 0.03 | 88 | 1005.4 |
| 20260506030600 | 16 | 280 | 0.0 | 0.0 | 0.03 | 0.03 | 0.03 | 88 | 1005.4 |
| 20260506030010 | 16 | 280 | 0.0 | 0.0 | 0.00 | 0.00 | 0.00 | 87 | 1005.6 |
| 20260506025508 | 16 | 280 | 0.0 | 0.0 | 0.00 | 0.00 | 0.00 | 86 | 1005.5 |
| 20260506025010 | 16 | 280 | 0.0 | 0.0 | 0.00 | 0.00 | 0.00 | 86 | 1005.5 |
| 20260506024523 | 16 | 280 | 0.0 | 0.0 | 0.00 | 0.00 | 0.00 | 86 | 1005.5 |
| 20260506024031 | 16 | 280 | 0.0 | 3.2 | 0.00 | 0.00 | 0.00 | 86 | 1005.5 |
| 20260506023519 | 16 | 280 | 0.0 | 3.2 | 0.00 | 0.00 | 0.00 | 85 | 1005.4 |
| 20260506023030 | 16 | 280 | 0.0 | 1.6 | 0.00 | 0.00 | 0.00 | 84 | 1005.4 |
| 20260506022543 | 17 | 280 | 0.0 | 1.6 | 0.00 | 0.00 | 0.00 | 84 | 1005.6 |
| 20260506022030 | 17 | 280 | 0.0 | 3.2 | 0.00 | 0.00 | 0.00 | 82 | 1005.6 |
| 20260506021544 | 17 | 280 | 0.0 | 3.2 | 0.00 | 0.00 | 0.00 | 81 | 1005.6 |
| 20260506021056 | 17 | 264 | 0.0 | 6.4 | 0.00 | 0.00 | 0.00 | 81 | 1005.6 |
| 20260506020513 | 17 | 264 | 0.0 | 8.0 | 0.00 | 0.00 | 0.00 | 80 | 1005.6 |
| 20260506020054 | 17 | 284 | 0.0 | 8.0 | 0.00 | 0.00 | 0.00 | 79 | 1005.5 |
| 20260506015510 | 17 | 277 | 0.0 | 3.2 | 0.00 | 0.00 | 0.00 | 78 | 1005.5 |
| 20260506015022 | 17 | 271 | 0.0 | 8.0 | 0.00 | 0.00 | 0.00 | 78 | 1005.4 |
| 20260506014517 | 17 | 287 | 0.0 | 8.0 | 0.00 | 0.00 | 0.00 | 77 | 1005.4 |
| 20260506014020 | 17 | 292 | 1.6 | 8.0 | 0.00 | 0.00 | 0.00 | 77 | 1005.3 |
| 20260506013534 | 17 | 304 | 0.0 | 8.0 | 0.00 | 0.00 | 0.00 | 76 | 1005.4 |
| 20260506013037 | 17 | 288 | 0.0 | 8.0 | 0.00 | 0.00 | 0.00 | 76 | 1005.3 |
| 20260506012536 | 17 | 270 | 1.6 | 4.8 | 0.00 | 0.00 | 0.00 | 76 | 1005.3 |
| 20260506012045 | 17 | 257 | 0.0 | 8.0 | 0.00 | 0.00 | 0.00 | 75 | 1005.5 |
| 20260506011504 | 18 | 252 | 3.2 | 8.0 | 0.00 | 0.00 | 0.00 | 75 | 1005.4 |
| 20260506011052 | 18 | 247 | 0.0 | 6.4 | 0.00 | 0.00 | 0.00 | 75 | 1005.5 |
| 20260506010510 | 18 | 304 | 0.0 | 8.0 | 0.00 | 0.00 | 0.00 | 74 | 1005.3 |
| 20260506010025 | 18 | 304 | 0.0 | 8.0 | 0.00 | 0.00 | 0.00 | 73 | 1005.3 |